Torax TimeFrame

Torax TimeFrame ⇒ XML

NameTime LeftWindow Opens
Old World Drake45d 09:472018-09-01 19:35:00
Straya, the Underworld Ruler1d 02:402018-10-16 02:42:00
Lord Xordam0d 20:532018-10-16 08:29:00
Slashbrood, Devourer of the Blackness0d 20:162018-10-16 09:06:00
Ormsul the Putrid0d 19:592018-10-16 09:23:00
Anguish0d 19:432018-10-16 09:39:00
Felroc, Overseer of Hellfire0d 18:052018-10-16 11:17:00
Zertan, The Collector0d 16:102018-10-16 13:12:00
Grivvek, Protector of the Brood0d 15:052018-10-16 14:17:00
Crantos, Defender of Ultimation0d 14:542018-10-16 14:28:00
Kretok, Descendant of Nature0d 13:402018-10-16 15:42:00
Nessam0d 12:142018-10-16 17:08:00
Crane0d 12:092018-10-16 17:13:00
Anvilfist0d 11:592018-10-16 17:23:00
Ancient Magus Tarkin0d 11:522018-10-16 17:30:00
Rancid, Lord of Thugs0d 07:362018-10-16 21:46:00
Garland, The Lord Keeper0d 07:052018-10-16 22:17:00
King Ashnar, Lord of the Unliving0d 06:002018-10-16 23:22:00
Lord Suka0d 05:362018-10-16 23:46:00
Jazzmin, Maiden of Vitality0d 05:052018-10-17 00:17:00
Great Lord Ganeshan0d 04:402018-10-17 00:42:00
Tsort0d 04:062018-10-17 01:16:00
Lacuste of the Swarm0d 02:032018-10-17 03:19:00
Baron Mu, Dark Rider of the Undead0d 01:302018-10-17 03:52:00
Gnorb0d 01:212018-10-17 04:01:00
Freezebreed, The Frozen Manipulator0d 00:422018-10-17 04:40:00
Lady Chaos, Queen of the Abyss0d 00:262018-10-17 04:56:00
Volgan the Living Ironbark0d 00:032018-10-17 05:19:00
Threk, King of Lords0d 03:152018-10-17 08:38:00
Terrance, Rebel of Rallis0d 03:172018-10-17 08:40:00
Lord Varan0d 03:322018-10-17 08:55:00
Bolkor, the Holy Master0d 04:502018-10-17 10:13:00
Howldroid, Tormentor of the Pit0d 05:362018-10-17 10:59:00
Traxodon the Plaguebringer0d 05:392018-10-17 11:02:00
Lord Sibannac0d 06:072018-10-17 11:30:00
Smoot the Yeti0d 07:522018-10-17 13:15:00
Rotborn, Eater of the Dead0d 07:542018-10-17 13:17:00
Windstrike The Vile0d 08:282018-10-17 13:51:00
Jorun the Blazing Swordsman0d 08:292018-10-17 13:52:00
Dreg nor, Keeper of the Infernal Essence0d 08:402018-10-17 14:03:00
Ganja the Stone Golem0d 09:232018-10-17 14:46:00
Ebliss, Fallen Angel of Despair0d 09:442018-10-17 15:07:00
Karvaz, Lord of Alsayic0d 10:252018-10-17 15:48:00
Keeper of Nature0d 11:112018-10-17 16:34:00
Zikkir the Dark Archer0d 14:542018-10-17 20:17:00
Skybrine The Inescapable0d 15:012018-10-17 20:24:00
Nayark the Mummified Sorcerer0d 15:042018-10-17 20:27:00
Lord Narada0d 15:332018-10-17 20:56:00
Raiyar, the Shadow Master0d 19:292018-10-18 00:52:00
Samatha Dark-Soul0d 20:352018-10-18 01:58:00
Emperor Neudeus, Controller of the Universe0d 22:582018-10-18 04:21:00
Mistress of the Sword1d 01:262018-10-18 06:49:00
The Emerald Assassin1d 02:512018-10-18 08:14:00
Tylos, The Lord Master1d 03:552018-10-18 09:18:00
Melt Bane, The Forbidden Demon Dragon1d 06:232018-10-18 11:46:00
Sarcrina the Astral Priestess1d 07:472018-10-18 13:10:00
Shadow1d 08:062018-10-18 13:29:00
Hackerphage, Protector of the Gateway1d 08:072018-10-18 13:30:00
Brutalitar, Lord of the Underworld1d 09:212018-10-18 14:44:00
Viserion, the Necrodragon1d 13:502018-10-18 19:13:00
Detox1d 14:512018-10-18 20:14:00
Sigil, Lich of Woe1d 15:132018-10-18 20:36:00
Gorganus of the Wood1d 15:382018-10-18 21:01:00
Xynak, the Arcane Master1d 16:092018-10-18 21:32:00
Murderface1d 17:182018-10-18 22:41:00
Numerocure, The Black Messenger of Evil1d 19:102018-10-19 00:33:00
Akkel the Enflamed Warrior1d 21:412018-10-19 03:04:00
Varsanor, Master of Darkness2d 02:032018-10-19 07:26:00
Dlanod, the Crazed Chancellor2d 02:592018-10-19 08:22:00
Lady Ariella2d 04:152018-10-19 09:38:00
Bloodchill the Grizzly2d 05:412018-10-19 11:04:00
Archdevil Yirkon2d 09:362018-10-19 14:59:00
Skarthul the Avenged2d 11:102018-10-19 16:33:00
Esquin, the Kinetic Master2d 15:152018-10-19 20:38:00
Noxious Slug2d 19:442018-10-20 01:07:00
Quiver, The Renegade2d 21:432018-10-20 03:06:00
Balerion, Dragon of Dread2d 22:592018-10-20 04:22:00
Amalgamated Apparition2d 23:162018-10-20 04:39:00
Crolvak, the Fire Master3d 07:242018-10-20 12:47:00
Nar Zhul, Slayer of All3d 08:302018-10-20 13:53:00
Sylvanna TorLai3d 11:102018-10-20 16:33:00
Ag Nabak the Abomination3d 13:062018-10-20 18:29:00
Beast of Cards3d 13:392018-10-20 19:02:00
Kro Shuk, Doomslayer4d 03:472018-10-21 09:10:00
Nafir, God of Desolation4d 07:142018-10-21 12:37:00
Q-SEC Commander4d 23:232018-10-22 04:46:00
Shaik, Servant of Arkron101d 23:392018-07-07 05:43:00
Rook, Hand of Arkron100d 02:142018-07-09 03:08:00
Jade Dragonite54d 08:212018-08-23 21:01:00
Animated Captain45d 11:002018-09-01 18:22:00
Wanhiroeaz the Devourer3d 13:152018-10-13 16:07:00
Pinosis2d 07:542018-10-14 21:28:00
Hyrak, Bringer of Nightmares2d 07:442018-10-14 21:38:00
Vitkros, Hydra of the Deep1d 22:582018-10-15 06:24:00
Synge, The Red Dragon1d 22:282018-10-15 06:54:00
95 Gods, Last update: 2018-10-17 05:15:03